Location: ????
(30.1475°N, 31.1342°E)
Time: 08:26:48
(UTC+00:00)

USA 234 - Pass Details

Date: 27 September 2022
Orbit: 1099 x 1109 km, 123.0° (Epoch: 24 November)

Event Time Altitude Azimuth Distance (km) Brightness Sun altitude
Rises 02:29:05 0° 32° (NNE) 3,916 6.8 -17.5°
Reaches altitude 10° 02:31:45 10° 24° (NNE) 2,958 5.9 -16.9°
Maximum altitude 02:37:35 37° 320° (NW) 1,652 3.9 -15.7°
Enters shadow 02:41:21 20° 268° (W) 2,285 4.3 -14.9°
